Location: Borotín
(49.5055°N, 14.6142°E)
Time: 06:05:03
(UTC+00:00)

USA 229 - Pass Details

Date: 27 May 2022
Orbit: 938 x 1274 km, 63.4° (Epoch: 24 May)

Event Time Altitude Azimuth Distance (km) Brightness Sun altitude
Rises 00:17:02 0° 315° (NW) 3,986 7.0 -17.1°
Reaches altitude 10° 00:19:51 10° 308° (NW) 3,071 6.3 -17.0°
Maximum altitude 00:26:33 39° 243° (WSW) 1,753 4.5 -16.6°
Enters shadow 00:30:48 22° 191° (S) 2,412 4.9 -16.3°
